This is the latest recevied weather packets stored in our database for station/object NR0Q. If no packets are shown the sender has not sent any weather packets the latest 10 day(s).
| Time | Temp. | Humidity | Pressure | Rain* | Wind** | Luminosity | Snow |
|---|---|---|---|---|---|---|---|
| 1777655701 | 20° C | 41% | 1020.7 hPa | 0 mm | - | - | - |
| 1777654801 | 19.44° C | 39% | 1020.7 hPa | 0 mm | - | - | - |
| 1777653901 | 18.89° C | 41% | 1020.7 hPa | 0 mm | - | - | - |
| 1777653001 | 18.33° C | 40% | 1020.7 hPa | 0 mm | - | - | - |
| 1777652101 | 17.22° C | 44% | 1020.7 hPa | 0 mm | - | - | - |
| 1777651201 | 17.78° C | 46% | 1020.7 hPa | 0 mm | - | - | - |
| 1777650301 | 17.78° C | 50% | 1020.7 hPa | 0 mm | - | - | - |
| 1777649401 | 16.67° C | 51% | 1020.7 hPa | 0 mm | - | - | - |
| 1777648501 | 16.67° C | 50% | 1020.7 hPa | 0 mm | - | - | - |
| 1777647602 | 15.56° C | 55% | 1020.7 hPa | 0 mm | - | - | - |
| 1777646701 | 15° C | 57% | 1020.7 hPa | 0 mm | - | - | - |
| 1777645801 | 15.56° C | 58% | 1020.7 hPa | 0 mm | - | - | - |
| 1777644901 | 15° C | 59% | 0 hPa | 0 mm | - | - | - |
| 1777644001 | 15° C | 63% | 0 hPa | 0 mm | - | - | - |
| 1777643101 | 15° C | 66% | 0 hPa | 0 mm | - | - | - |
| 1777641301 | 12.78° C | 73% | 0 hPa | 0 mm | - | - | - |
| 1777640401 | 12.22° C | 75% | 1020.7 hPa | 0 mm | - | - | - |
| 1777639501 | 11.67° C | 74% | 1020.7 hPa | 0 mm | - | - | - |
| 1777638601 | 11.67° C | 76% | 0 hPa | 0 mm | - | - | - |
| 1777637701 | 10.56° C | 81% | 0 hPa | 0 mm | - | - | - |
| 1777636801 | 10° C | 82% | 0 hPa | 0 mm | - | - | - |
| 1777635901 | 10° C | 82% | 0 hPa | 0 mm | - | - | - |
| 1777635001 | 10° C | 83% | 0 hPa | 0 mm | - | - | - |
| 1777634101 | 10° C | 82% | 0 hPa | 0 mm | - | - | - |
| 1777633201 | 10° C | 82% | 1018.6 hPa | 0 mm | - | - | - |
* Rain latest hour (hover to see other rain measurements)
** Current wind speed in m/s (hover to see current wind gust speed)